Osceola, WI

1:20 AM CDT on August 29, 2016 (GMT -0500)
Simenstad Municipal

Weather History for KOEO - October, 2013

Change the Weather History Date:

Sunday, October 27, 2013

  Actual Average (KMSP) Record (KMSP)
Temperature  
Mean Temperature 42 °F 44 °F  
Max Temperature 55 °F 53 °F 74 °F (1922)
Min Temperature 28 °F 36 °F 13 °F (1997)
Degree Days  
Heating Degree Days 24 21  
Month to date heating degree days 418  
Since 1 July heating degree days 591  
Cooling Degree Days 0 0  
Month to date cooling degree days 3  
Year to date cooling degree days 750  
Moisture  
Dew Point 30 °F    
Average Humidity 67    
Maximum Humidity 93    
Minimum Humidity 41    
Precipitation  
Precipitation 0.00 in 0.07 in 2.22 in (1971)
Month to date precipitation 2.19  
Year to date precipitation 27.44  
Snow  
Snow 0.00 in 0.00 in 2.60 in (1919)
Month to date snowfall 0.4  
Since 1 July snowfall 0.4  
Since 1 September snowfall 0.4  
Snow Depth -    
Sea Level Pressure  
Sea Level Pressure 29.95 in    
Wind  
Wind Speed 6 mph (West)    
Max Wind Speed 15 mph    
Max Gust Speed 24 mph    
Visibility 10 miles    
Events      
T = Trace of Precipitation, MM = Missing Value Source: NWS Daily Summary

Daily Weather History Graph

Daily Weather History Graph

Search for Another Location

Airport or City:

Trip Planner

Search our weather history database for the weather conditions in past years. The results will help you decide how hot, cold, wet, or windy it might be!

Date:

Astronomy

Oct. 27, 2013 Rise Set
Actual Time 7:43 AM CDT 6:05 PM CDT
Civil Twilight 7:12 AM CDT 6:35 PM CDT
Nautical Twilight 6:38 AM CDT 7:10 PM CDT
Astronomical Twilight 6:04 AM CDT 7:44 PM CDT
Moon 12:22 AM CDT (10/27) 2:31 PM CDT (10/27)
Length of Visible Light 11h 22m
Length of Day
10h 21m
Last Quarter, 43% of the Moon is Illuminated
Oct 27
Last Quarter
Nov 3
New
Nov 9
First Quarter
Nov 17
Full
Nov 25
Last Quarter

Hourly Weather History & Observations

Time (CDT) Temp. Windchill Dew Point Humidity Pressure Visibility Wind Dir Wind Speed Gust Speed Precip Events Conditions
12:15 AM 37.6 °F 33.1 °F 29.1 °F 72% 30.04 in 10.0 mi WSW 5.8 mph - N/A   Overcast
12:35 AM 36.7 °F 32.0 °F 28.0 °F 71% 30.03 in 10.0 mi West 5.8 mph - N/A   Mostly Cloudy
12:55 AM 36.3 °F 32.5 °F 27.5 °F 70% 30.03 in 10.0 mi WSW 4.6 mph - N/A   Overcast
1:15 AM 35.1 °F - 28.2 °F 76% 30.03 in 10.0 mi Calm Calm - N/A   Mostly Cloudy
1:35 AM 32.9 °F 29.8 °F 27.5 °F 81% 30.02 in 10.0 mi South 3.5 mph - N/A   Clear
1:55 AM 32.0 °F 27.5 °F 27.3 °F 83% 30.01 in 10.0 mi South 4.6 mph - N/A   Clear
2:15 AM 30.7 °F 26.0 °F 27.1 °F 86% 30.00 in 10.0 mi South 4.6 mph - N/A   Clear
2:35 AM 31.5 °F 28.1 °F 27.5 °F 85% 30.00 in 10.0 mi SSW 3.5 mph - N/A   Clear
2:55 AM 29.8 °F - 27.0 °F 89% 29.99 in 10.0 mi Calm Calm - N/A   Clear
3:15 AM 30.6 °F - 26.6 °F 85% 29.99 in 10.0 mi Calm Calm - N/A   Clear
3:35 AM 29.7 °F 26.1 °F 26.2 °F 87% 29.98 in 10.0 mi SSW 3.5 mph - N/A   Clear
3:55 AM 29.8 °F 24.9 °F 26.4 °F 87% 29.97 in 10.0 mi South 4.6 mph - N/A   Clear
4:15 AM 29.3 °F 25.6 °F 26.2 °F 88% 29.97 in 10.0 mi SW 3.5 mph - N/A   Clear
4:35 AM 30.4 °F - 27.1 °F 88% 29.96 in 10.0 mi Calm Calm - N/A   Clear
4:55 AM 28.6 °F 24.8 °F 26.1 °F 90% 29.96 in 10.0 mi SSW 3.5 mph - N/A   Clear
5:15 AM 29.1 °F 25.4 °F 26.2 °F 89% 29.96 in 10.0 mi SSW 3.5 mph - N/A   Clear
5:35 AM 29.1 °F 24.1 °F 27.1 °F 92% 29.96 in 10.0 mi SSE 4.6 mph - N/A   Clear
5:55 AM 29.1 °F 23.0 °F 27.3 °F 93% 29.95 in 10.0 mi South 5.8 mph - N/A   Clear
6:15 AM 30.0 °F 23.2 °F 28.2 °F 93% 29.94 in 10.0 mi South 6.9 mph - N/A   Clear
6:35 AM 30.7 °F 24.1 °F 28.4 °F 91% 29.93 in 10.0 mi South 6.9 mph - N/A   Clear
6:55 AM 30.2 °F 23.4 °F 28.2 °F 92% 29.92 in 10.0 mi South 6.9 mph - N/A   Clear
7:15 AM 30.9 °F 24.3 °F 28.4 °F 90% 29.90 in 10.0 mi South 6.9 mph - N/A   Clear
7:35 AM 30.7 °F 24.9 °F 27.7 °F 88% 29.90 in 10.0 mi SSE 5.8 mph - N/A   Clear
7:55 AM 30.4 °F 25.6 °F 27.5 °F 89% 29.90 in 10.0 mi SSE 4.6 mph - N/A   Clear
8:15 AM 31.1 °F 25.4 °F 28.4 °F 90% 29.90 in 10.0 mi SSE 5.8 mph - N/A   Clear
8:35 AM 32.2 °F 25.8 °F 29.3 °F 89% 29.89 in 10.0 mi South 6.9 mph - N/A   Clear
8:55 AM 33.8 °F 25.8 °F 30.0 °F 86% 29.87 in 10.0 mi South 10.4 mph - N/A   Clear
9:15 AM 36.3 °F 30.1 °F 30.2 °F 78% 29.87 in 10.0 mi South 8.1 mph - N/A   Clear
9:35 AM 36.5 °F 30.3 °F 29.5 °F 76% 29.86 in 10.0 mi South 8.1 mph - N/A   Clear
9:55 AM 38.8 °F 33.2 °F 30.0 °F 71% 29.86 in 10.0 mi SSW 8.1 mph - N/A   Clear
10:15 AM 40.3 °F 35.5 °F 30.4 °F 68% 29.87 in 10.0 mi SSW 6.9 mph - N/A   Clear
10:35 AM 42.6 °F 37.2 °F 30.6 °F 62% 29.85 in 10.0 mi South 9.2 mph 18.4 mph N/A   Clear
10:55 AM 44.8 °F 39.9 °F 30.7 °F 58% 29.86 in 10.0 mi SW 9.2 mph 16.1 mph N/A   Clear
11:15 AM 47.1 °F - 31.3 °F 54% 29.86 in 10.0 mi SW 12.7 mph 17.3 mph N/A   Clear
11:35 AM 48.2 °F - 30.4 °F 50% 29.85 in 10.0 mi SW 11.5 mph - N/A   Clear
11:55 AM 49.1 °F - 30.9 °F 50% 29.85 in 10.0 mi SW 10.4 mph - N/A   Clear
12:15 PM 50.4 °F - 30.7 °F 47% 29.85 in 10.0 mi SW 9.2 mph - N/A   Clear
12:35 PM 52.3 °F - 30.4 °F 43% 29.85 in 10.0 mi West 13.8 mph 18.4 mph N/A   Clear
12:55 PM 52.0 °F - 30.4 °F 44% 29.85 in 10.0 mi West 8.1 mph - N/A   Clear
1:15 PM 52.9 °F - 30.6 °F 43% 29.84 in 10.0 mi WSW 8.1 mph - N/A   Clear
1:35 PM 53.6 °F - 31.6 °F 43% 29.84 in 10.0 mi WNW 9.2 mph - N/A   Clear
1:55 PM 54.0 °F - 31.6 °F 43% 29.84 in 10.0 mi West 8.1 mph - N/A   Clear
2:15 PM 54.7 °F - 32.0 °F 42% 29.84 in 10.0 mi West 6.9 mph - N/A   Clear
2:35 PM 54.9 °F - 32.0 °F 42% 29.83 in 10.0 mi NW 6.9 mph - N/A   Clear
2:55 PM 55.4 °F - 32.5 °F 42% 29.84 in 10.0 mi NW 8.1 mph - N/A   Clear
3:15 PM 55.0 °F - 32.4 °F 42% 29.84 in 10.0 mi NW 5.8 mph - N/A   Clear
3:35 PM 55.4 °F - 32.2 °F 41% 29.85 in 10.0 mi WNW 9.2 mph - N/A   Clear
3:55 PM 55.4 °F - 32.5 °F 42% 29.87 in 10.0 mi NNW 8.1 mph - N/A   Clear
4:15 PM 55.0 °F - 32.7 °F 43% 29.88 in 10.0 mi NNW 6.9 mph - N/A   Clear
4:35 PM 54.5 °F - 32.7 °F 44% 29.88 in 10.0 mi NW 6.9 mph 10.4 mph N/A   Clear
4:55 PM 53.6 °F - 32.9 °F 45% 29.90 in 10.0 mi North 6.9 mph - N/A   Clear
5:15 PM 52.7 °F - 32.5 °F 46% 29.91 in 10.0 mi NNW 9.2 mph - N/A   Clear
5:35 PM 51.6 °F - 33.3 °F 50% 29.92 in 10.0 mi North 4.6 mph - N/A   Clear
5:55 PM 49.8 °F - 33.1 °F 53% 29.94 in 10.0 mi North 8.1 mph - N/A   Clear
6:15 PM 48.7 °F - 32.9 °F 54% 29.95 in 10.0 mi North 5.8 mph - N/A   Clear
6:35 PM 47.7 °F - 32.2 °F 55% 29.96 in 10.0 mi North 4.6 mph - N/A   Clear
6:55 PM 46.6 °F - 32.4 °F 58% 29.97 in 10.0 mi North 5.8 mph - N/A   Clear
7:15 PM 45.9 °F 42.9 °F 32.2 °F 59% 29.99 in 10.0 mi North 5.8 mph - N/A   Clear
7:35 PM 45.5 °F 41.8 °F 32.4 °F 60% 30.00 in 10.0 mi North 6.9 mph - N/A   Clear
7:55 PM 44.6 °F 40.7 °F 32.0 °F 61% 30.02 in 10.0 mi North 6.9 mph - N/A   Scattered Clouds
8:15 PM 45.1 °F 39.9 °F 32.0 °F 60% 30.04 in 10.0 mi North 10.4 mph 16.1 mph N/A   Mostly Cloudy
8:35 PM 45.1 °F 38.4 °F 31.1 °F 58% 30.05 in 10.0 mi North 15.0 mph 24.2 mph N/A   Overcast
8:55 PM 43.3 °F 37.7 °F 31.1 °F 62% 30.07 in 10.0 mi NNE 10.4 mph 19.6 mph N/A   Overcast
9:15 PM 43.0 °F 36.8 °F 30.9 °F 62% 30.09 in 10.0 mi NNE 11.5 mph - N/A   Overcast
9:35 PM 42.4 °F 35.7 °F 30.7 °F 63% 30.10 in 10.0 mi NNE 12.7 mph 18.4 mph N/A   Overcast
9:55 PM 42.3 °F 35.9 °F 30.2 °F 62% 30.11 in 10.0 mi NNE 11.5 mph - N/A   Overcast
10:15 PM 42.1 °F 34.9 °F 29.8 °F 62% 30.13 in 10.0 mi NNE 13.8 mph 17.3 mph N/A   Overcast
10:35 PM 41.9 °F 35.4 °F 29.7 °F 62% 30.14 in 10.0 mi NNE 11.5 mph 16.1 mph N/A   Overcast
10:55 PM 40.8 °F 33.3 °F 29.3 °F 64% 30.15 in 10.0 mi NNE 13.8 mph 20.7 mph N/A   Mostly Cloudy
11:15 PM 40.1 °F 32.4 °F 29.7 °F 66% 30.16 in 10.0 mi NNE 13.8 mph 20.7 mph N/A   Clear
11:35 PM 38.7 °F 31.4 °F 30.2 °F 72% 30.17 in 10.0 mi NNE 11.5 mph - N/A   Clear
11:55 PM 38.3 °F 30.9 °F 30.2 °F 73% 30.18 in 10.0 mi NNE 11.5 mph 16.1 mph N/A   Clear